Regional Weather Roundup
Issued by NWS

Home | Current Version | Previous Version | Graphics & Text | Print | Product List | Glossary On
Versions: 1 2 3 4 5 6 7 8 9 10 11 12 13 14 15 16 17 18 19 20 21 22 23 24 25 26 27 28 29 30 31 32 33 34 35 36 37 38 39 40 41 42 43 44 45 46 47 48 49 50
000
ASUS43 KLSX 201607
RWRMO

WEATHER SUMMARY FOR MISSOURI
NATIONAL WEATHER SERVICE SPRINGFIELD MO
1100 AM CDT SAT SEP 20 2014

NOTE: "FAIR" INDICATES FEW OR NO CLOUDS BELOW 12,000 FEET WITH NO
       SIGNIFICANT WEATHER AND/OR OBSTRUCTIONS TO VISIBILITY.
       CURRENT SKY AND/OR WEATHER CONDITIONS ARE NOT AVAILABLE FOR
       CHILLICOTHE AND FARMINGTON.

MOZ001>031-035>038-043-044-053-054-201700-
...NORTHERN AND WESTERN MISSOURI...

CITY           SKY/WX    TMP DP  RH WIND       PRES   REMARKS
KANSAS CTY INT PTSUNNY   77  70  79 SW10      29.99F
KANSAS C DTWN  MOSUNNY   81  70  69 SW12      29.98F
LEE`S SUMMIT   SUNNY     78  68  71 SW14      30.02F
ST JOSEPH      CLOUDY    76  69  79 SW15      29.96F
CHILLICOTHE      N/A     73  69  87 VRB5      29.98S
KIRKSVILLE     CLOUDY    71  67  87 SW10      29.97R FOG

$$
MOZ066>068-077>081-088>096-101>105-201700-
...SOUTHWEST MISSOURI...

CITY           SKY/WX    TMP DP  RH WIND       PRES   REMARKS
SPRINGFIELD    SUNNY     77  68  73 SW10      30.08F
JOPLIN         SUNNY     78  70  76 SW14      30.07S

$$
MOZ032>034-039>042-045>050-055>058-069>072-201700-
...CENTRAL MISSOURI...

CITY           SKY/WX    TMP DP  RH WIND       PRES   REMARKS
COLUMBIA       MOSUNNY   78  71  79 SW10      30.04S
JEFFERSON CITY MOSUNNY   79  69  71 W7        30.02F
ROLLA          SUNNY     76  67  73 SW10      30.06R
SEDALIA        SUNNY     79  68  69 SW14      30.04R
WHITEMAN AFB   SUNNY     78  70  75 SW13      30.02S
OSAGE BEACH    SUNNY     79  66  65 SW9       30.05F

$$
MOZ051-052-059>065-201700-
...EAST CENTRAL MISSOURI...

CITY           SKY/WX    TMP DP  RH WIND       PRES   REMARKS
ST LOUIS INTL  PTSUNNY   79  68  69 W12       30.04S
SPIRIT OF STL  MOSUNNY   78  68  71 W15       30.02F
ST CHARLES     MOSUNNY   78  67  68 SW12      30.01F

$$
MOZ072>076-082>087-097>100-106>115-201700-
...SOUTH CENTRAL AND SOUTHEAST MISSOURI...

CITY           SKY/WX    TMP DP  RH WIND       PRES   REMARKS
CAPE GIRARDEAU SUNNY     79  70  74 SW7       30.07F
FARMINGTON     SUNNY     81  70  69 SW15      30.09F
POPLAR BLUFF   SUNNY     81  67  62 SW9       30.07S
WEST PLAINS    MOSUNNY   78  67  68 SW9       30.12R

$$


USA.gov is the U.S. government's official web portal to all federal, state and local government web resources and services.